Weather History for New Bern, NC

Change the Weather History Date:

Tuesday, May 28, 2013

  Actual Average Record
Temperature  
Mean Temperature 70 °F 73 °F  
Max Temperature 85 °F 83 °F 93 °F (2004)
Min Temperature 54 °F 62 °F 42 °F (1961)
Degree Days  
Heating Degree Days 0 0  
Month to date heating degree days 24 32  
Since 1 July heating degree days 2585 2699  
Cooling Degree Days 5 8  
Month to date cooling degree days 146 148  
Year to date cooling degree days 219 218  
Growing Degree Days 20 (Base 50)    
Moisture  
Dew Point 59 °F    
Average Humidity 67    
Maximum Humidity 93    
Minimum Humidity 40    
Precipitation  
Precipitation 0.00 in 0.14 in 1.25 in (1960)
Month to date precipitation 1.78 3.70  
Year to date precipitation 11.35 18.94  
Snow  
Snow 0.00 in - - ()
Month to date snowfall 0.0  
Since 1 July snowfall T  
Snow Depth 0.00 in    
Sea Level Pressure  
Sea Level Pressure 30.25 in    
Wind  
Wind Speed 5 mph (South)    
Max Wind Speed 15 mph    
Max Gust Speed 22 mph    
Visibility 10 miles    
Events      
T = Trace of Precipitation, MM = Missing Value Source: NWS Daily Summary

Daily Weather History Graph

Daily Weather History Graph

Search for Another Location

Airport:

Trip Planner

Search our weather history database for the weather conditions in past years. The results will help you decide how hot, cold, wet, or windy it might be!

Date:

Astronomy

May. 28, 2013 Rise Set
Actual Time 5:56 AM EDT 8:14 PM EDT
Civil Twilight 5:27 AM EDT 8:43 PM EDT
Nautical Twilight 4:52 AM EDT 9:19 PM EDT
Astronomical Twilight 4:13 AM EDT 9:58 PM EDT
Moon 11:41 PM EDT (5/28) 9:38 AM EDT (5/28)
Length of Visible Light 15h 16m
Length of Day
14h 18m
Waning Gibbous, 83% of the Moon is Illuminated
May 28
Waning Gibbous
May 31
Last Quarter
Jun 8
New
Jun 16
First Quarter
Jun 23
Full

Hourly Weather History & Observations

Time (EDT) Temp. Heat Index Dew Point Humidity Pressure Visibility Wind Dir Wind Speed Gust Speed Precip Events Conditions
12:54 AM 59.0 °F - 54.0 °F 83% 30.26 in 10.0 mi Calm Calm - N/A   Clear
1:54 AM 57.9 °F - 54.0 °F 87% 30.25 in 10.0 mi Calm Calm - N/A   Clear
2:54 AM 57.0 °F - 54.0 °F 89% 30.24 in 10.0 mi Calm Calm - N/A   Clear
3:54 AM 57.9 °F - 54.0 °F 87% 30.25 in 10.0 mi Calm Calm - N/A   Clear
4:54 AM 55.9 °F - 53.1 °F 90% 30.23 in 10.0 mi SSE 4.6 mph - N/A   Clear
5:54 AM 57.9 °F - 55.0 °F 90% 30.25 in 10.0 mi Calm Calm - N/A   Clear
6:54 AM 61.0 °F - 57.0 °F 87% 30.26 in 10.0 mi Calm Calm - N/A   Clear
7:54 AM 69.1 °F - 63.0 °F 81% 30.28 in 10.0 mi Calm Calm - N/A   Clear
8:54 AM 75.0 °F - 61.0 °F 62% 30.28 in 10.0 mi SSE 4.6 mph - N/A   Clear
9:54 AM 78.1 °F - 60.1 °F 54% 30.29 in 10.0 mi Variable 4.6 mph - N/A   Clear
10:54 AM 81.0 °F 81.0 °F 57.0 °F 44% 30.29 in 10.0 mi SW 5.8 mph - N/A   Partly Cloudy
11:54 AM 82.0 °F 82.0 °F 57.9 °F 44% 30.29 in 10.0 mi South 4.6 mph - N/A   Partly Cloudy
12:54 PM 82.9 °F 82.6 °F 57.9 °F 42% 30.28 in 10.0 mi South 3.5 mph - N/A   Mostly Cloudy
1:54 PM 84.0 °F 84.0 °F 60.1 °F 44% 30.27 in 10.0 mi South 8.1 mph - N/A   Scattered Clouds
2:54 PM 84.0 °F 84.5 °F 62.1 °F 47% 30.24 in 10.0 mi South 10.4 mph 19.6 mph N/A   Clear
3:54 PM 84.0 °F 83.3 °F 57.0 °F 40% 30.22 in 10.0 mi South 11.5 mph - N/A   Clear
4:54 PM 82.9 °F 82.6 °F 57.9 °F 42% 30.22 in 10.0 mi South 10.4 mph - N/A   Clear
5:54 PM 82.0 °F 82.4 °F 60.1 °F 47% 30.22 in 10.0 mi South 9.2 mph - N/A   Clear
6:54 PM 79.0 °F - 63.0 °F 58% 30.22 in 10.0 mi South 9.2 mph - N/A   Clear
7:54 PM 75.0 °F - 64.0 °F 69% 30.22 in 10.0 mi South 10.4 mph - N/A   Clear
8:54 PM 73.0 °F - 64.0 °F 73% 30.23 in 10.0 mi South 5.8 mph - N/A   Clear
9:54 PM 72.0 °F - 64.9 °F 78% 30.23 in 10.0 mi South 6.9 mph - N/A   Clear
10:54 PM 71.1 °F - 64.9 °F 81% 30.24 in 10.0 mi South 5.8 mph - N/A   Clear
11:54 PM 70.0 °F - 66.0 °F 87% 30.22 in 10.0 mi South 5.8 mph - N/A   Clear